Printer-friendly version

IAU Minor Planet Center

Minor Planet Center

MPEC 2000-C17: 2000 BM19

The following Minor Planet Electronic Circular may be linked-to from your own Web pages, but must not otherwise be redistributed electronically.


Read MPEC 2000-C16 Read MPEC 2000-C18


M.P.E.C. 2000-C17                                Issued 2000 Feb. 3, 17:50 UT

     The Minor Planet Electronic Circulars contain information on unusual
         minor planets and routine data on comets.  They are published
   on behalf of Commission 20 of the International Astronomical Union by the
          Minor Planet Center, Smithsonian Astrophysical Observatory,
                          Cambridge, MA 02138, U.S.A.

             Prepared using the Tamkin Foundation Computer Network

             BMARSDEN@CFA.HARVARD.EDU or GWILLIAMS@CFA.HARVARD.EDU
          URL http://cfa-www.harvard.edu/iau/mpc.html  ISSN 1523-6714

                                   2000 BM19

Observations:
     K00B19M* C2000 01 31.07787 01 15 34.40 +26 37 32.3          18.4        704
     K00B19M  C2000 01 31.09257 01 15 39.59 +26 38 08.8          18.7        704
     K00B19M  C2000 01 31.10726 01 15 44.68 +26 38 43.7          18.9        704
     K00B19M  C2000 01 31.12196 01 15 49.80 +26 39 21.1          18.8        704
     K00B19M  C2000 02 01.11366 01 21 44.95 +27 19 50.7          18.1 R      858
     K00B19M  C2000 02 01.11571 01 21 45.62 +27 19 55.7          18.7 R      858
     K00B19M  C2000 02 01.70826 01 25 16.24 +27 43 06.3                      557
     K00B19M  C2000 02 01.70966 01 25 16.79 +27 43 09.1                      557
     K00B19M  C2000 02 01.71108 01 25 17.28 +27 43 12.5                      557
     K00B19M  C2000 02 01.71648 01 25 19.11 +27 43 26.0          18.0 R      046
     K00B19M  C2000 02 01.71759 01 25 19.39 +27 43 28.4          18.0 R      118
     K00B19M  C2000 02 01.71956 01 25 20.19 +27 43 32.8                      046
     K00B19M  C2000 02 01.72344 01 25 21.46 +27 43 41.3                      046
     K00B19M  C2000 02 01.72490 01 25 21.86 +27 43 44.8          17.9 R      118
     K00B19M  C2000 02 01.72839 01 25 23.12 +27 43 51.7                      046
     K00B19M  C2000 02 01.73098 01 25 24.06 +27 43 58.5                      046
     K00B19M  C2000 02 01.73197 01 25 24.27 +27 44 00.6          18.4 R      118
     K00B19M  C2000 02 01.73227 01 25 24.47 +27 44 01.6                      046
     K00B19M  C2000 02 01.74866 01 25 30.20 +27 44 38.2                      557
     K00B19M  C2000 02 02.08478 01 27 28.07 +27 57 37.5          18.1 R      858
     K00B19M  C2000 02 02.08713 01 27 28.88 +27 57 42.6          18.0 R      858
     K00B19M  C2000 02 02.09001 01 27 29.82 +27 57 49.0          17.9 R      858
     K00B19M  C2000 02 02.10144 01 27 33.72 +27 58 15.6          17.9        704
     K00B19M  C2000 02 02.11553 01 27 38.50 +27 58 46.3          18.2        704
     K00B19M  C2000 02 02.12957 01 27 43.29 +27 59 17.9          18.9        704
     K00B19M  C2000 02 02.14364 01 27 48.13 +27 59 48.7          18.5        704
     K00B19M  C2000 02 02.15768 01 27 52.94 +28 00 19.5          18.7        704
     K00B19M  C2000 02 02.19458 01 28 05.73 +28 01 41.0                      651
     K00B19M  C2000 02 02.19612 01 28 06.31 +28 01 45.7          18.8 V      651
     K00B19M  C2000 02 02.22648 01 28 16.84 +28 02 53.0                      651
     K00B19M  C2000 02 03.12347 01 33 29.38 +28 36 02.7                      670
     K00B19M  C2000 02 03.12731 01 33 30.90 +28 36 08.7                      670

Observer details:
046 Klet.  Observers M. Tichy, Z. Moravec.  0.57-m f/5.2 reflector + CCD.
118 Modra.  Observers A. Galad, P. Koleny.  0.6-m f/5.5 reflector + CCD.
557 Ondrejov.  Observer L. Sarounova.  0.65-m f/3.6 reflector + CCD.
651 Grasslands Observatory, Tucson.  Observer J. E. McGaha.  0.62-m f/5.1
    reflector + CCD.
670 Camarillo.  Observer J. E. Rogers.  0.30-m f/6.7 Helin Telescope + CCD.
704 Lincoln Laboratory ETS, New Mexico.  Observers M. Blythe, F. Shelly,
    M. Bezpalko, M. Elowitz, R. Huber.  Measurers J. Stuart, H. Viggh,
    R. Sayer, J. B. Evans.  1.0-m f/2.15 reflector + CCD.
858 Tebbutt Observatory, Edgewood.  Observer F. B. Zoltowski.  0.3-m f/3.3
    Schmidt-Cassegrain + CCD.

Orbital elements:
2000 BM19
Epoch 2000 Jan. 17.0 TT = JDT 2451560.5                 Williams
M 114.46385              (2000.0)            P               Q
n   1.54253413     Peri.  247.49960     +0.73787392     +0.66538152
a   0.7418445      Node    70.58830     -0.56673296     +0.70187347
e   0.3578406      Incl.    6.89214     -0.36654582     +0.25424608
P   0.64           H   18.4           G   0.15
From 32 observations 2000 Jan. 31-Feb. 3.

Ephemeris:
2000 BM19                a,e,i = 0.74, 0.36, 7                   q = 0.4764
Date    TT    R. A. (2000) Decl.     Delta      r     Elong.  Phase     V
2000 01 27    00 50.41   +23 29.2    0.263    0.952    75.2    89.3    18.5
2000 02 01    01 21.09   +27 15.4    0.278    0.968    78.3    85.4    18.5
2000 02 06    01 49.72   +30 12.2    0.296    0.981    80.4    82.3    18.6
2000 02 11    02 16.26   +32 27.5    0.315    0.991    81.6    80.0    18.7
2000 02 16    02 40.82   +34 09.4    0.335    0.999    82.2    78.4    18.8
2000 02 21    03 03.53   +35 24.7    0.355    1.004    82.2    77.3    18.9
2000 02 26    03 24.60   +36 18.9    0.375    1.007    81.8    76.6    19.0
2000 03 02    03 44.23   +36 56.3    0.393    1.007    80.9    76.4    19.1
2000 03 07    04 02.59   +37 20.3    0.411    1.004    79.7    76.5    19.2
2000 03 12    04 19.81   +37 33.5    0.428    0.999    78.3    76.9    19.2
2000 03 17    04 35.97   +37 37.6    0.442    0.991    76.7    77.6    19.3
2000 03 22    04 51.09   +37 33.7    0.454    0.981    74.8    78.6    19.4
2000 03 27    05 05.20   +37 22.9    0.465    0.968    72.7    80.0    19.5
2000 04 01    05 18.27   +37 05.8    0.472    0.952    70.5    81.6    19.5
2000 04 06    05 30.27   +36 42.9    0.477    0.934    68.0    83.7    19.6

2000 04 16    05 50.37   +35 41.3    0.478    0.889    62.4    89.2    19.7
2000 04 26    06 03.48   +34 18.0    0.467    0.835    55.4    97.2    19.8
2000 05 06    06 06.07   +32 27.7    0.446    0.771    46.2   109.1    20.2
2000 05 16    05 52.71   +29 52.6    0.423    0.699    33.5   126.9    21.2

Gareth V. Williams           (C) Copyright 2000 MPC           M.P.E.C. 2000-C17

Read MPEC 2000-C16 Read MPEC 2000-C18


Our Web policy. Index to the CBAT/MPC/ICQ pages.


Valid HTML 4.01!